Broken Bow, NE

8:30 PM CST on January 19, 2018 (GMT -0600)
Broken Bow Municipal

Weather History for KBBW - January, 2012

Change the Weather History Date:

Saturday, January 7, 2012

  Actual Average Record
Temperature  
Mean Temperature 25 °F 26 °F  
Max Temperature 38 °F 37 °F 65 °F (2006)
Min Temperature 12 °F 14 °F -25 °F (1912)
Degree Days  
Heating Degree Days 40 40  
Month to date heating degree days 209 280  
Cooling Degree Days 0 0  
Month to date cooling degree days 0 0  
Year to date cooling degree days 0 0  
Moisture  
Dew Point 21 °F    
Average Humidity 68    
Maximum Humidity 92    
Minimum Humidity 44    
Precipitation  
Precipitation T in 0.01 in 0.20 in (1967)
Sea Level Pressure  
Sea Level Pressure 30.21 in    
Wind  
Wind Speed 2 mph (WNW)    
Max Wind Speed 9 mph    
Max Gust Speed 12 mph    
Visibility 8 miles    
Events Snow    
T = Trace of Precipitation, MM = Missing Value Source: NWS Daily Summary

Daily Weather History Graph

Daily Weather History Graph

Search for Another Location

Airport or City:

Trip Planner

Search our weather history database for the weather conditions in past years. The results will help you decide how hot, cold, wet, or windy it might be!

Date:

Astronomy

Jan. 07, 2012 Rise Set
Actual Time 8:04 AM CST 5:24 PM CST
Civil Twilight 7:33 AM CST 5:55 PM CST
Nautical Twilight 6:59 AM CST 6:30 PM CST
Astronomical Twilight 6:25 AM CST 7:03 PM CST
Moon 4:10 PM CST (1/7) 6:37 AM CST (1/7)
Length of Visible Light 10h 21m
Length of Day
9h 19m
Waxing Gibbous, 97% of the Moon is Illuminated
Jan 7
Waxing Gibbous
Jan 9
Full
Jan 16
Last Quarter
Jan 23
New
Jan 30
First Quarter

Hourly Weather History & Observations

Time (CST) Temp. Windchill Dew Point Humidity Pressure Visibility Wind Dir Wind Speed Gust Speed Precip Events Conditions
12:53 AM 21.0 °F - 12.0 °F 68% 30.15 in 10.0 mi Calm Calm - N/A   Clear
1:53 AM 18.0 °F - 12.0 °F 78% 30.15 in 10.0 mi Calm Calm - N/A   Clear
2:53 AM 18.0 °F 8.7 °F 12.0 °F 78% 30.17 in 10.0 mi SW 6.9 mph - N/A   Clear
3:53 AM 16.0 °F - 10.9 °F 81% 30.17 in 10.0 mi Calm Calm - N/A   Clear
4:53 AM 15.1 °F - 10.0 °F 80% 30.18 in 10.0 mi Calm Calm - N/A   Clear
5:53 AM 15.8 °F - 10.4 °F 79% 30.09 in 10.0 mi Calm Calm - N/A   Clear
6:53 AM 14.0 °F - 10.0 °F 84% 30.20 in 10.0 mi Calm Calm - N/A   Clear
7:53 AM 15.1 °F - 10.9 °F 84% 30.20 in 10.0 mi Calm Calm - N/A   Clear
8:53 AM 19.0 °F - 14.0 °F 81% 30.22 in 10.0 mi Calm Calm - N/A   Overcast
9:53 AM 24.1 °F - 18.0 °F 77% 30.25 in 10.0 mi Calm Calm - N/A   Mostly Cloudy
10:53 AM 30.0 °F - 21.0 °F 69% 30.25 in 10.0 mi Calm Calm - N/A   Overcast
11:53 AM 34.0 °F 31.0 °F 21.9 °F 61% 30.24 in 10.0 mi SSW 3.5 mph - N/A   Scattered Clouds
12:53 PM 37.0 °F - 19.0 °F 48% 30.20 in 10.0 mi Calm Calm - N/A   Overcast
1:53 PM 37.4 °F 32.1 °F 17.6 °F 45% 30.11 in 10.0 mi SSE 6.9 mph - N/A   Overcast
2:53 PM 37.0 °F 34.5 °F 18.0 °F 46% 30.20 in 10.0 mi South 3.5 mph - N/A   Overcast
3:53 PM 35.1 °F 31.0 °F 23.0 °F 61% 30.23 in 7.0 mi Variable 4.6 mph - 0.00 in Snow Light Snow
4:20 PM 33.8 °F 28.6 °F 26.6 °F 75% 30.15 in 6.0 mi WSW 5.8 mph - 0.00 in Snow Light Snow
4:31 PM 32.0 °F 27.5 °F 28.4 °F 87% 30.15 in 2.0 mi West 4.6 mph - 0.00 in Snow Light Snow
4:45 PM 32.0 °F 28.7 °F 28.4 °F 87% 30.15 in 4.0 mi WNW 3.5 mph - 0.00 in Snow Light Snow
4:53 PM 32.0 °F 28.7 °F 28.9 °F 88% 30.25 in 4.0 mi NNW 3.5 mph - 0.00 in Snow Light Snow
5:53 PM 32.0 °F 27.5 °F 28.0 °F 85% 30.27 in 7.0 mi North 4.6 mph - 0.00 in Snow Light Snow
6:05 PM 32.0 °F 28.7 °F 28.4 °F 87% 30.18 in 3.0 mi NNE 3.5 mph - 0.00 in Snow Light Snow
6:23 PM 30.2 °F 26.7 °F 28.4 °F 93% 30.18 in 4.0 mi North 3.5 mph - 0.00 in Snow Light Snow
6:53 PM 30.0 °F 26.5 °F 28.9 °F 96% 30.30 in 5.0 mi NNW 3.5 mph - 0.00 in Snow Light Snow
7:53 PM 30.2 °F 26.7 °F 28.4 °F 93% 30.20 in 10.0 mi NW 3.5 mph - N/A   Overcast
8:53 PM 30.0 °F 26.5 °F 28.9 °F 96% 30.31 in 6.0 mi NW 3.5 mph - 0.00 in Snow Light Snow
9:53 PM 30.0 °F - 28.0 °F 92% 30.31 in 4.0 mi Calm Calm - 0.00 in Snow Light Snow
10:53 PM 30.0 °F - 28.0 °F 92% 30.30 in 4.0 mi Calm Calm - 0.00 in Snow Light Snow
11:53 PM 28.0 °F - 27.0 °F 96% 30.30 in 10.0 mi Calm Calm - 0.00 in   Overcast